Tracking 29040 objects as of 15-Jun-2024
HD Live streaming from Space Station
objects crossing your sky now

ATLAS 5 CENTAUR DEB

Track ATLAS 5 CENTAUR DEB now!


NORAD ID: 53516
Int'l Code: 2014-055DM
Perigee: 8,456.2 km
Apogee: 35,363.2 km
Inclination: 20.0 °
Period: 788.8 minutes
Semi major axis: 28280 km
RCS: Unknown
Launch date: September 17, 2014
Source: United States (US)
Launch site: AIR FORCE EASTERN TEST RANGE (AFETR)

Note: This is SATELLITE DEBRIS
Your satellite tracking list
Your tracking list is empty




NASA's NSSDC Master Catalog

Two Line Element Set (TLE):
1 53516U 14055DP  24165.54764306 -.00000107  00000-0  00000-0 0  9997
2 53516  20.0377 226.4809 4757138  20.4009 353.6330  1.82544479 12686
Source of the keplerian elements: AFSPC